Main page
Satellite images Climate Cyclones Lightning AirportsFAQ Languages Contact Newsletter About
Weather : Europe Africa North America South America Asia Australia-Oceania Others

nanning-cn, Nanning, Nanning Wuxu International Airport

59431

latitude: , longitude: China, elevation: 22-49N m


METAR: ZGNN 200300Z 17003MPS 130V220 9999 FEW023 33/25 Q1005 NOSIG